This demonstration page uses our WeatherBlox Daily Observations layout. Learn more.

Left ArrowRight Arrow

39.08367, -84.50855

Hourly Observations for March 26, 2020

Temp ( °F °C ) Dew Point ( °F °C ) Humidity (%) Winds ( mph kmh ) Pressure ( in mb ) Visibility ( mi km ) Precip ( " mm )
12:53 am 00:53 Clear 45 7.2 42 5.6 90 90 N N/A 29.96 1015 10 16 N/A
1:53 am 01:53 Clear 44 6.7 42 5.6 93 93 N N/A 29.94 1014 10 16 N/A
2:53 am 02:53 Clear 43 6.1 42 5.6 97 97 SSW 3 6 29.95 1014 8 13 N/A
3:53 am 03:53 Clear with Mist and Fog 42 5.6 42 5.6 100 100 N N/A 29.94 1014 6 10 N/A
4:53 am 04:53 Clear 41 5 41 5 100 100 N N/A 29.93 1014 8 13 N/A
5:01 am 05:01 Clear with Mist and Fog 42 5.6 41 5 96 96 N N/A 29.96 1014 1 2 N/A
5:07 am 05:07 Clear with Mist and Fog 42 5.6 41 5 96 96 N N/A 29.95 1014 3 5 N/A
5:53 am 05:53 Clear 41 5 40 4.4 96 96 N N/A 29.93 1014 10 16 N/A
6:18 am 06:18 Clear with Mist and Fog 39 3.9 39 3.9 100 100 S 3 6 29.96 1015 2 3 N/A
6:35 am 06:35 Clear with Fog 39 3.9 38 3.3 96 96 N N/A 29.96 1015 1 1 N/A
6:46 am 06:46 Clear 38 3.3 38 3.3 100 100 N N/A 29.95 1014 1 2 N/A
6:53 am 06:53 Clear 40 4.4 38 3.3 93 93 N N/A 29.93 1014 10 16 N/A
7:53 am 07:53 Sunny 39 3.9 38 3.3 96 96 W 3 6 29.95 1014 10 16 N/A
8:53 am 08:53 Sunny 46 7.8 44 6.7 93 93 N N/A 29.93 1014 10 16 N/A
9:53 am 09:53 Sunny 52 11.1 46 7.8 80 80 SSW 9 15 29.92 1013 10 16 N/A
10:53 am 10:53 Sunny 57 13.9 46 7.8 67 67 VRB 3 6 29.93 1014 10 16 N/A
11:53 am 11:53 Sunny 64 17.8 50 10 60 60 SSW 9 15 29.92 1013 10 16 N/A
12:53 pm 12:53 Sunny 67 19.4 51 10.6 57 57 SW 13 20 29.89 1012 10 16 N/A
1:53 pm 13:53 Sunny 69 20.6 51 10.6 53 53 SW 13 20 29.86 1011 10 16 N/A
2:53 pm 14:53 Sunny 68 20 51 10.6 55 55 SSW 10 17 29.82 1010 10 16 N/A
3:53 pm 15:53 Sunny 69 20.6 50 10 51 51 S 17 28 29.74 1007 10 16 N/A
4:53 pm 16:53 Cloudy with Light Rain 68 20 52 11.1 57 57 SSW 14 22 29.76 1008 10 16 0.00 0.00
5:53 pm 17:53 Cloudy with Light Rain 65 18.3 54 12.2 68 68 S 8 13 29.71 1006 10 16 0.00 0.00
6:53 pm 18:53 Sunny 65 18.3 56 13.3 73 73 S 6 9 29.67 1005 10 16 0.02 0.51
7:53 pm 19:53 Mostly Cloudy 62 16.7 56 13.3 80 80 NE 5 7 29.73 1007 10 16 N/A
8:53 pm 20:53 Cloudy 63 17.2 57 13.9 81 81 NNE 7 11 29.72 1006 10 16 N/A
9:53 pm 21:53 Mostly Cloudy 59 15 56 13.3 90 90 N N/A 29.71 1006 10 16 N/A
10:53 pm 22:53 Partly Cloudy 59 15 56 13.3 90 90 N N/A 29.72 1007 10 16 N/A
11:53 pm 23:53 Mostly Cloudy 57 13.9 55 12.8 93 93 N N/A 29.75 1008 10 16 N/A

Powered by AerisWeather